Погода в Татаркине

Россия / Рязанская область     54°10′12″N   40°11′41″E
темп.,
°C
ветер,
м/с
пор.,
м/с
влажн.,
%
обл.,
%
осадки,
мм/ч
давл.,
гПа
погр.,
м
14 мая, пт
пт1400:00+11в33905 0.0 101729
03:00+12вюв2385100 0.0 101855
06:00+13вюв2588100 0.0 1018123
09:00+18юв357236 0.0 1017423
12:00+22юв5759100 0.0 10171330
15:00+23ююв6859100 0.0 10161743
18:00+20вюв51180100 0.1 1014270
21:00+18юв6167798 0.1 1013415
15 мая, сб
сб1500:00+16ююв2292100 0.4 101326
03:00+15вюв3494100 0.8 101266
06:00+16юв379218 0.0 1011171
09:00+21ююв577895 0.0 1011478
12:00+22ююз71375100 0.3 10111219
15:00+21ю71173100 0.5 10121114
18:00+20ююз5978100 0.6 1012527
21:00+16ююз359016 0.6 101281
16 мая, вс
вс1600:00+14юз349157 0.0 101351
03:00+13ююз339116 0.0 101433
06:00+14ююз3690100 0.0 1014142
09:00+18юз4775100 0.0 1015451
12:00+22юз45571 0.0 10151328
15:00+23юз465412 0.0 10141966
18:00+22ююз24685 0.0 1014167
21:00+18вюв1173100 0.0 101411
17 мая, пн
пн1700:00+16вюв2278100 0.0 101411
03:00+14вюв228678 0.0 101516
06:00+16всв34875 0.0 1014106
09:00+22в467261 0.0 1014435
12:00+25вюв5660100 0.0 1013828
15:00+26юв46555 0.0 10121146
18:00+24юв37686 0.0 1012225
21:00+18юв4108426 0.0 1012170
18 мая, вт
вт1800:00+16юв410840 0.0 1011146
03:00+16юв5147434 0.0 1010235
06:00+16юв5137315 0.0 1010263
09:00+21ююв6116374 0.0 1010401
12:00+25ююв6125517 0.0 1010962
15:00+25ююв711558 0.0 10091375
18:00+23ю61265100 0.0 1009432
21:00+17юз379190 0.2 1010199